AO-07 1 07530U 74089B 26236.27892306 -.00000028 00000-0 11372-3 0 9997 2 07530 101.9921 250.2374 0012255 3.2594 7.1380 12.53699200369050 UO-11 1 14781U 84021B 26236.61314321 .00001153 00000-0 12242-3 0 9990 2 14781 97.8129 201.4554 0006685 328.9523 31.1300 14.90942051267320 LO-19 1 20442U 90005G 26235.50831170 .00000072 00000-0 42285-4 0 9993 2 20442 98.8842 259.1639 0011737 14.2970 345.8543 14.34139286912049 AO-27 1 22825U 93061C 26236.17522057 .00000056 00000-0 38253-4 0 9992 2 22825 98.6828 303.5458 0007259 259.2627 100.7738 14.30956996716727 FO-29 1 24278U 96046B 26234.99810505 -.00000005 00000-0 34201-4 0 9992 2 24278 98.5190 74.7120 0348806 283.1085 73.1351 13.53276958482209 GO-32 1 25397U 98043D 26236.41053792 .00000052 00000-0 42525-4 0 9999 2 25397 99.0128 230.9077 0001982 51.4157 308.7199 14.24439584461044 ISS 1 25544U 98067A 26236.43525466 .00008197 00000-0 15348-3 0 9993 2 25544 51.6332 322.3014 0007699 78.6726 281.5127 15.49604681582335 NO-44 1 26931U 01043C 26235.97866662 .00000080 00000-0 60923-4 0 9999 2 26931 67.0496 68.9288 0005650 270.3796 89.6659 14.31977234300159 SO-50 1 27607U 02058C 26236.52869240 .00000793 00000-0 11089-3 0 9993 2 27607 64.5512 277.5176 0073098 249.9417 109.3811 14.83174583274599 CO-55 1 27844U 03031E 26236.45778142 .00000230 00000-0 11830-3 0 9990 2 27844 98.6766 244.1664 0009392 355.0395 5.0690 14.24371208201396 RS-22 1 27939U 03042A 26236.66113582 .00000654 00000-0 10876-3 0 9990 2 27939 98.3489 62.9695 0012407 54.9093 9.3735 14.73571474225632 CO-65 1 32785U 08021C 26236.58133213 .00004380 00000-0 27350-3 0 9996 2 32785 97.8336 219.4757 0009544 146.5464 213.6370 15.09998892995511 CO-66 1 32791U 08021J 26236.43913328 .00017414 00000-0 51659-3 0 9991 2 32791 97.7553 237.7228 0004761 82.1663 278.0120 15.34881759997753 RS-30 1 32953U 08025A 26236.58533777 .00000042 00000-0 22673-3 0 9990 2 32953 82.5064 312.9017 0020175 159.5805 200.6086 12.43182201828194 SRMSAT 1 37841U 11058D 26236.65891193 .00000370 00000-0 57000-4 0 9995 2 37841 19.9733 5.0180 0011608 237.5362 239.0287 14.11588211767503 ZACUBE-1 1 39417U 13066B 26236.38738718 .00005230 00000-0 40051-3 0 9997 2 39417 97.8037 199.0507 0041940 24.8253 335.4976 15.01607912690962 Delfi-N3xt 1 39428U 13066N 26236.56111833 .00006658 00000-0 56991-3 0 9997 2 39428 97.8291 156.8282 0073086 340.4801 19.3624 14.95848008684842 GOMX-1 1 39430U 13066Q 26236.61529590 .00001641 00000-0 25160-3 0 9990 2 39430 97.6454 72.7651 0127146 217.1276 142.1087 14.69629621679967 LO-74 1 39440U 13066AA 26236.31198594 .00001972 00000-0 18408-3 0 9998 2 39440 97.8943 185.6159 0057439 159.9326 200.4171 14.94154809687168 AO-73 1 39444U 13066AE 26236.38181511 .00006980 00000-0 42377-3 0 9996 2 39444 97.8340 209.3165 0034724 334.7608 25.1922 15.10334451689959 DTUSAT-2 1 40030U 14033W 26236.44657030 .00005684 00000-0 30142-3 0 9992 2 40030 98.0898 238.5631 0008044 15.8050 344.3430 15.15789770663022 LILACSAT-2 1 40908U 15049K 26236.59192911 .00017699 00000-0 27885-3 0 9991 2 40908 97.4598 276.1173 0006565 21.0813 339.0709 15.53605981606364 Lapan A3 1 41603U 16040E 26236.64997733 .00002813 00000-0 89098-4 0 9994 2 41603 97.1543 230.5833 0011739 123.9352 236.3009 15.33483483565309 CAS-2T 1 41847U 16066G 26236.24823162 .00000429 00000-0 70441-4 0 9995 2 41847 98.3779 311.2051 0340081 283.0877 73.2568 14.44813468514625 TechnoSat 1 42829U 17042E 26236.25943164 .00003114 00000-0 22136-3 0 9998 2 42829 97.4355 31.3767 0016707 218.2340 141.7703 15.05286297496948 AO-91 1 43017U 17073E 26236.52006350 .00008440 00000-0 35860-3 0 9994 2 43017 97.4605 102.3409 0149760 92.4666 269.3720 15.13595055475720 S-Net D 1 43186U 18014G 26236.60181985 .00004216 00000-0 21525-3 0 9994 2 43186 97.5280 140.9634 0009328 132.3402 227.8623 15.17217524469137 S-Net B 1 43187U 18014H 26236.48274762 .00004452 00000-0 22732-3 0 9990 2 43187 97.5282 140.8337 0010005 129.1648 231.0475 15.17184212469116 S-Net A 1 43188U 18014J 26236.60032559 .00004193 00000-0 21402-3 0 9996 2 43188 97.5296 141.1726 0009901 129.4845 230.7265 15.17225956469139 S-Net C 1 43189U 18014K 26236.55298772 .00004469 00000-0 22812-3 0 9994 2 43189 97.5313 141.2108 0011383 124.0051 236.2266 15.17174616467677 Ten-Koh 1 43677U 18084G 26235.49462450 .00002456 00000-0 18657-3 0 9997 2 43677 98.0747 70.7007 0008644 251.8301 108.1982 15.03169880426278 PO-101 1 43678U 18084H 26236.58576477 .00001133 00000-0 94640-4 0 9992 2 43678 98.1208 75.8042 0010474 304.8350 55.1887 15.00672225426470 QO-100 1 43700U 18090A 26236.55232390 .00000000 00000-0 00000-0 0 9990 2 43700 0.0279 122.7932 0002485 59.7563 14.9007 1.00270027 28363 MinXSS-2 1 43758U 18099A 26236.49217315 .00040875 00000-0 68741-3 0 9998 2 43758 97.4485 314.9960 0006025 24.4321 335.7216 15.51618568424707 AO-95 1 43770U 18099N 26236.60481516 .00010297 00000-0 37879-3 0 9994 2 43770 97.4331 296.6401 0010132 105.2298 255.0062 15.28019919423668 SNUSat 2 1 43782U 18099AA 26236.10241483 .00007470 00000-0 32232-3 0 9996 2 43782 97.4011 288.4647 0011439 63.4156 296.8251 15.22759950423366 SnugLite 1 43784U 18099AC 26236.38733106 .00009886 00000-0 35903-3 0 9997 2 43784 97.3819 290.0382 0004159 67.9687 292.1995 15.28489770423738 ITASat 1 1 43786U 18099AE 26236.11654433 .00005384 00000-0 25398-3 0 9991 2 43786 97.3981 286.2863 0014028 112.9315 247.3402 15.19795667423220 EAGLET 1 1 43790U 18099AJ 26236.56187178 .00003589 00000-0 20441-3 0 9991 2 43790 97.4180 284.4180 0012668 107.2968 252.9650 15.13381254422670 ESEO 1 43792U 18099AL 26236.55915647 .00001176 00000-0 88193-4 0 9991 2 43792 97.3942 271.0117 0013966 99.0849 261.1959 15.04424923422087 JO-97 1 43803U 18099AX 26236.62279797 .00015872 00000-0 45910-3 0 9998 2 43803 97.4076 299.7724 0006050 42.5314 317.6397 15.35682704424123 Suomi 100 1 43804U 18099AY 26236.13051517 .00011246 00000-0 39082-3 0 9997 2 43804 97.4135 296.3185 0010583 48.2722 311.9422 15.29854667423808 ISAT 1 43879U 18111D 26236.11450590 .00233094 00000-0 10993-2 0 9992 2 43879 97.5798 177.3407 0007946 101.0616 259.1546 15.82418392421842 UWE-4 1 43880U 18111E 26236.53339866 .00036871 00000-0 65113-3 0 9991 2 43880 97.5819 168.2810 0009919 81.4152 278.8223 15.50224981421353 Sparrow 1 43881U 18111F 26228.98401838 .16116594 28263-5 19760-3 0 9992 2 43881 97.5857 177.1140 0010462 202.8700 157.2139 16.49385238421037 Prox-1 1 44339U 19036A 26236.57144239 .00012650 00000-0 11876-2 0 9995 2 44339 23.9957 16.9121 0006145 103.3116 256.8070 14.92042480383692 Taurus 1 1 44530U 19059C 26236.60620365 .00004501 00000-0 71355-3 0 9991 2 44530 98.6477 45.7394 0009636 97.7003 262.5297 14.72713614368715 TO-108 1 44881U 19093C 26236.63407000 .00001491 00000-0 17389-3 0 9992 2 44881 97.7487 307.1823 0012408 216.8702 143.1662 14.86611811361587 RS-44 1 44909U 19096E 26236.56860520 .00000024 00000-0 56238-4 0 9996 2 44909 82.5211 294.2737 0217114 344.7890 14.6749 12.79748916311091 SALSAT 1 46495U 20068K 26235.95590157 .00006873 00000-0 23443-3 0 9996 2 46495 97.8879 243.2009 0011187 69.3904 290.8534 15.30648655325720 CSS (TIANHE-1) 1 48274U 21035A 26236.32435285 .00015463 00000-0 19530-3 0 9997 2 48274 41.4682 268.3876 0001589 252.2897 107.7768 15.59217005303805 TeikyoSat 4 1 49396U 21102B 26236.06185346 .00001327 00000-0 85984-4 0 9990 2 49396 97.3649 262.9055 0013507 63.2508 297.0102 15.09712485262968 Z-Sat 1 49399U 21102E 26236.59854384 .00004506 00000-0 21947-3 0 9996 2 49399 97.3300 269.8509 0016830 14.9251 345.2477 15.18726073263820 KOSEN 1 1 49402U 21102H 26236.54230697 .00006342 00000-0 23657-3 0 9991 2 49402 97.3146 277.3934 0012275 332.6483 27.4109 15.27694935264457 HO-113 1 50466U 21131B 26236.63940870 .00000677 00000-0 22247-3 0 9995 2 50466 98.4976 328.6581 0002915 246.6278 113.4605 14.41411472244976 SNUGLITE 2 1 52899U 22065F 26235.40236931 .00000814 00000-0 16289-3 0 9996 2 52899 98.2293 20.1525 0007803 163.7189 196.4265 14.64451853220835 UmKA 1 (RS40S) 1 57172U 23091G 26236.57170603 .00005307 00000-0 23877-3 0 9990 2 57172 97.4998 295.0160 0011109 235.9852 124.0329 15.21481533174409 CubeBel-2 (EU11S) 1 57175U 23091K 26236.59656200 .00012095 00000-0 41024-3 0 9993 2 57175 97.4999 300.4778 0008313 224.1030 135.9548 15.30650105174766 RS-38S 1 57189U 23091Z 26236.57021520 .00015987 00000-0 42939-3 0 9996 2 57189 97.5044 307.5054 0007209 172.8956 187.2392 15.37987098175193 SONATE-2 1 59112U 24043Q 26236.33185495 .00045324 00000-0 48202-3 0 9995 2 59112 97.5589 31.2118 0004727 309.8563 50.2279 15.63896001138526 GRBBeta 1 60237U 24128C 26236.56985860 .00003354 00000-0 23450-3 0 9993 2 60237 61.9920 336.2674 0030985 149.6156 210.6742 15.07062959116571 Curium One 1 60242U 24128H 26236.24429903 .00006804 00000-0 38746-3 0 9992 2 60242 61.9799 324.5650 0029965 145.3342 214.9715 15.13389983116754 ROBUSTA-3A 1 60243U 24128J 26236.24846218 .00006659 00000-0 38838-3 0 9995 2 60243 61.9879 327.4061 0031876 142.3482 217.9854 15.12508028116713 CatSat 1 60246U 24125J 26236.06546429 .00091155 00000-0 82518-3 0 9995 2 60246 97.2011 89.8699 0014464 285.5810 74.3855 15.67651872117994 HYPERVIEW-1G (RS66S) 1 61772U 24199AP 26230.11543498 .07890463 24672-5 93922-3 0 9997 2 61772 97.2456 114.2453 0006603 245.8477 114.2131 16.36574258144515 AO-123 1 61781U 24199AY 26236.56307450 .00007256 00000-0 20481-3 0 9995 2 61781 97.2899 104.6238 0015236 66.5459 293.7386 15.36563616144420 LASARsat 1 62391U 24247Q 26236.48817849 .00036354 00000-0 62501-3 0 9996 2 62391 44.9711 237.1959 0007877 48.7761 311.3808 15.50520667 93909 CroCube 1 62394U 24247T 26235.35906192 .00041109 00000-0 64528-3 0 9999 2 62394 44.9686 239.6311 0008124 50.5412 309.6198 15.53009612 93774 JINJUSat 1B 1 63210U 25052A 26236.15949004 .00015781 00000-0 45999-3 0 9998 2 63210 97.3905 133.0696 0003128 157.2629 202.8754 15.35453571 80523 NUSHSAT 1 1 63211U 25052B 26235.17171990 .00018043 00000-0 47784-3 0 9999 2 63211 97.3880 132.8999 0002652 155.7534 204.3836 15.38414746 80430 TEVEL2-4 1 63213U 25052D 26236.20603729 .00018338 00000-0 51114-3 0 9995 2 63213 97.3801 132.7857 0001951 159.6685 200.4637 15.36824895 80555 TEVEL2-5 1 63214U 25052E 26236.56058799 .00017212 00000-0 48302-3 0 9991 2 63214 97.3801 133.0681 0001772 159.8940 200.2374 15.36626617 80606 TEVEL2-6 1 63215U 25052F 26236.18375104 .00018277 00000-0 51349-3 0 9999 2 63215 97.3803 132.6748 0001638 159.1120 201.0192 15.36580109 80547 TEVEL2-1 1 63217U 25052H 26236.49878451 .00016826 00000-0 48221-3 0 9991 2 63217 97.3779 132.5298 0001208 182.9959 177.1278 15.35975135 80574 TEVEL2-3 1 63218U 25052J 26236.16486433 .00017159 00000-0 49075-3 0 9999 2 63218 97.3779 132.2270 0001026 169.0363 191.0903 15.36036290 80521 TEVEL2-2 1 63219U 25052K 26236.17285483 .00017115 00000-0 49041-3 0 9998 2 63219 97.3778 132.2066 0001157 185.4014 174.7218 15.35977410 80528 TEVEL2-9 1 63237U 25052AD 26236.17658937 .00015717 00000-0 48233-3 0 9994 2 63237 97.3841 131.4296 0003742 254.2042 105.8788 15.33824437 80449 TEVEL2-7 1 63238U 25052AE 26235.51388802 .00015154 00000-0 47057-3 0 9991 2 63238 97.3840 130.6525 0003641 257.9226 102.1608 15.33456949 80335 TEVEL2-8 1 63239U 25052AF 26236.50155594 .00015011 00000-0 46589-3 0 9993 2 63239 97.3842 131.6142 0003732 255.1503 104.9327 15.33475254 80487 SPIRONE 1 66657U 25274H 26236.25047023 .00001347 00000-0 13229-3 0 9997 2 66657 97.7469 164.5763 0012809 141.5024 218.7112 14.93777872 40385 K-HERO 1 66660U 25274L 26236.23654822 .00001504 00000-0 14554-3 0 9997 2 66660 97.7478 164.7731 0014612 146.1578 214.0578 14.94176250 40395 SNUGLITE-III DURI 1 66661U 25274M 26236.49099269 .00001657 00000-0 15972-3 0 9998 2 66661 97.7473 165.0449 0015278 146.6948 213.5237 14.94190725 40430 SAKHACUBE-CHOLBON 1 67290U 25313AU 26236.18386050 .00008711 00000-0 34117-3 0 9994 2 67290 97.3892 310.4040 0010645 113.4583 246.7776 15.25981167 36347 RS95S (QMR-KWT-2) 1 67291U 25313AV 26236.16381408 .00013845 00000-0 51013-3 0 9993 2 67291 97.3889 310.7264 0010206 112.1555 248.0769 15.27888233 36364 Ten-Koh2 1 68261U 25241B 26236.59529002 .00007134 00000-0 29812-3 0 9998 2 68261 51.6644 353.8573 0006634 8.9705 351.1391 15.24650253 25343 JACK-002 1 68417U 26067B 26235.45140564 .00005471 00000-0 25628-3 0 9997 2 68417 97.4621 193.2668 0003747 65.3464 294.8161 15.20115020 22160 DISCO 2 1 68431U 26067R 26235.94362687 .00007060 00000-0 33112-3 0 9992 2 68431 97.4652 193.7486 0004144 102.7841 257.3858 15.19971810 22230 HADES-SA (SpinnyONE) 1 68446U 26067AG 26236.61354550 .00016709 00000-0 75147-3 0 9997 2 68446 97.4448 194.0102 0006165 173.0068 187.1255 15.21170102 22324 PARUS-6U1 1 68456U 26067AS 26236.61846644 .00004962 00000-0 24627-3 0 9993 2 68456 97.4607 193.9824 0005616 166.1489 193.9900 15.18140677 22312 SAL-E 1 68458U 26067AU 26236.59743294 .00006402 00000-0 31241-3 0 9990 2 68458 97.4530 193.8673 0005453 174.2136 185.9163 15.18621312 22310 FSI-SAT 2 1 68792U 26088A 26236.34109966 .00003672 00000-0 24699-3 0 9994 2 68792 97.5157 23.9479 0013003 230.0923 129.9163 15.07293263 18556 OrigamiSat 2 1 68795U 26088D 26236.37663870 .00012170 00000-0 74881-3 0 9990 2 68795 97.5136 24.3597 0014557 200.1495 159.9161 15.10077752 18580 ARICA 2 1 68796U 26088E 26236.34406820 .00003957 00000-0 25442-3 0 9990 2 68796 97.5149 24.2348 0014962 199.3192 160.7471 15.08890169 18576 WASEDA-SAT-ZERO-II 1 68797U 26088F 26235.86150612 .00005024 00000-0 31847-3 0 9995 2 68797 97.5140 23.8003 0014785 200.4294 159.6345 15.09289550 18508 MANGARO-II-Piscus 1 68798U 26088G 26235.85115205 .00002874 00000-0 18424-3 0 9990 2 68798 97.5151 23.8310 0018255 205.0510 154.9835 15.09187075 18501 CO-128 1 69912U 26156AV 26236.53238129 .00001358 00000-0 14332-3 0 9992 2 69912 97.7504 136.1310 0002684 17.7322 342.3990 14.90893596 7188 MARINA 1 69920U 26156BD 26235.22048699 .00001984 00000-0 20071-3 0 9999 2 69920 97.7474 134.9093 0007769 11.3753 348.7640 14.92085499 6991 IO-86 1 40931U 26199.45381863 .00000000 00000-0 77536-4 0 07 2 40931 6.0006 322.6653 0012733 338.8432 273.6875 14.79294310 03 LILIUM-4 1 71922C 26067AC 26089.50133053 -.00014632 00000 0 -74472-3 0 04 2 71922 97.4497 49.1617 0004341 5.9603 355.7042 15.16896692 16